Location: Sobotiste
(48.7170°N, 17.4000°E)
Time: 09:14:49
(UTC+02:00)

YUBILEINY - Pass Details

Date: 20 March 2026
Orbit: 1477 x 1509 km, 82.5° (Epoch: 17 April)

Event Time Altitude Azimuth Distance (km) Brightness Sun altitude
Rises 18:47:54 0° 268° (W) 4,632 ? -8.2°
Reaches altitude 10° 18:53:44 10° 298° (WNW) 3,648 ? -9.1°
Maximum altitude 18:56:38 12° 318° (NW) 3,504 ? -9.6°
Drops below altitude 10° 18:59:32 10° 338° (NNW) 3,644 ? -10.1°
Sets 19:05:24 0° 8° (N) 4,620 ? -11.0°
